Weather History for Inverness, FL

Change the Weather History Date:

Friday, November 9, 2012

  Actual Average (KOCF) Record (KOCF)
Temperature  
Mean Temperature 53 °F -  
Max Temperature 71 °F 74 °F 84 °F (2000)
Min Temperature 35 °F 52 °F 35 °F (1996)
Degree Days  
Heating Degree Days 12    
Growing Degree Days 3 (Base 50)    
Moisture  
Dew Point 38 °F    
Average Humidity 69    
Maximum Humidity 100    
Minimum Humidity 22    
Precipitation  
Precipitation 0.00 in - - ()
Sea Level Pressure  
Sea Level Pressure 30.25 in    
Wind  
Wind Speed 1 mph ()    
Max Wind Speed 9 mph    
Max Gust Speed -    
Averages and records for this station are not official NWS values.
T = Trace of Precipitation, MM = Missing Value Source: Averaged Metar Reports

Daily Weather History Graph

Daily Weather History Graph

Search for Another Location

Airport:

Trip Planner

Search our weather history database for the weather conditions in past years. The results will help you decide how hot, cold, wet, or windy it might be!

Date:

Astronomy

Nov. 09, 2012 Rise Set
Actual Time 6:47 AM EST 5:38 PM EST
Civil Twilight 6:23 AM EST 6:02 PM EST
Nautical Twilight 5:54 AM EST 6:31 PM EST
Astronomical Twilight 5:26 AM EST 6:59 PM EST
Moon 2:07 AM EST (11/9) 2:31 PM EST (11/9)
Length of Visible Light 11h 39m
Length of Day
10h 50m
Waning Crescent, 23% of the Moon is Illuminated
Nov 9
Waning Crescent
Nov 13
New
Nov 20
First Quarter
Nov 28
Full
Dec 6
Last Quarter

Hourly Weather History & Observations

Time (EST) Temp. Dew Point Humidity Pressure Visibility Wind Dir Wind Speed Gust Speed Precip Events Conditions
12:15 AM 42.8 °F 42.8 °F 100% 30.20 in - Calm Calm - N/A   Unknown
12:35 AM 42.8 °F 41.0 °F 93% 30.20 in - Calm Calm - N/A   Unknown
12:55 AM 41.0 °F 41.0 °F 100% 30.21 in - Calm Calm - N/A   Unknown
1:15 AM 41.0 °F 41.0 °F 100% 30.21 in - Calm Calm - N/A   Unknown
1:35 AM 41.0 °F 41.0 °F 100% 30.20 in - Calm Calm - N/A   Unknown
1:55 AM 41.0 °F 41.0 °F 100% 30.20 in - Calm Calm - N/A   Unknown
2:15 AM 39.2 °F 39.2 °F 100% 30.20 in - Calm Calm - N/A   Unknown
2:35 AM 37.4 °F 37.4 °F 100% 30.20 in - Calm Calm - N/A   Unknown
2:55 AM 37.4 °F 37.4 °F 100% 30.20 in - Calm Calm - N/A   Unknown
3:15 AM 37.4 °F 37.4 °F 100% 30.20 in - Calm Calm - N/A   Unknown
3:35 AM 37.4 °F 37.4 °F 100% 30.21 in - Calm Calm - N/A   Unknown
3:55 AM 37.4 °F 37.4 °F 100% 30.21 in - Calm Calm - N/A   Unknown
4:15 AM 35.6 °F 35.6 °F 100% 30.22 in - Calm Calm - N/A   Unknown
4:35 AM 35.6 °F 35.6 °F 100% 30.22 in - Calm Calm - N/A   Unknown
4:55 AM 35.6 °F 35.6 °F 100% 30.23 in - Calm Calm - N/A   Unknown
5:15 AM 35.6 °F 35.6 °F 100% 30.23 in - Calm Calm - N/A   Unknown
5:35 AM 35.6 °F 35.6 °F 100% 30.23 in - Calm Calm - N/A   Unknown
5:55 AM 35.6 °F 35.6 °F 100% 30.24 in - Calm Calm - N/A   Unknown
6:15 AM 35.6 °F 35.6 °F 100% 30.24 in - Calm Calm - N/A   Unknown
6:35 AM 35.6 °F 35.6 °F 100% 30.25 in - Calm Calm - N/A   Unknown
6:55 AM 35.6 °F 35.6 °F 100% 30.26 in - Calm Calm - N/A   Unknown
7:15 AM 35.6 °F 35.6 °F 100% 30.27 in - Calm Calm - N/A   Unknown
7:35 AM 37.4 °F 37.4 °F 100% 30.27 in - Calm Calm - N/A   Unknown
7:55 AM 42.8 °F 41.0 °F 93% 30.27 in - Calm Calm - N/A   Unknown
8:15 AM 46.4 °F 44.6 °F 93% 30.28 in - Calm Calm - N/A   Unknown
8:35 AM 51.8 °F 46.4 °F 82% 30.28 in - Calm Calm - N/A   Clear
8:55 AM 55.4 °F 46.4 °F 72% 30.28 in - NE 3.5 mph - N/A   Clear
9:15 AM 59.0 °F 44.6 °F 59% 30.29 in - NE 6.9 mph - N/A   Clear
9:35 AM 60.8 °F 44.6 °F 55% 30.29 in - NNE 8.1 mph - N/A   Clear
9:55 AM 62.6 °F 42.8 °F 48% 30.30 in - NNE 8.1 mph - N/A   Clear
10:15 AM 64.4 °F 41.0 °F 42% 30.30 in - NE 6.9 mph - N/A   Clear
10:35 AM 64.4 °F 37.4 °F 37% 30.31 in - NE 6.9 mph - N/A   Clear
10:55 AM 68.0 °F 37.4 °F 33% 30.31 in - ENE 9.2 mph - N/A   Clear
11:15 AM 66.2 °F 37.4 °F 35% 30.30 in - East 5.8 mph - N/A   Clear
11:35 AM 68.0 °F 35.6 °F 30% 30.30 in - NNE 8.1 mph - N/A   Clear
11:55 AM 68.0 °F 35.6 °F 30% 30.29 in - NE 5.8 mph - N/A   Clear
12:15 PM 69.8 °F 35.6 °F 28% 30.28 in - NNE 6.9 mph - N/A   Clear
12:35 PM 69.8 °F 35.6 °F 28% 30.27 in - ENE 4.6 mph - N/A   Clear
12:55 PM 69.8 °F 32.0 °F 25% 30.25 in - Calm Calm - N/A   Clear
1:15 PM 69.8 °F 32.0 °F 25% 30.24 in - NE 5.8 mph - N/A   Clear
1:35 PM 69.8 °F 32.0 °F 25% 30.24 in - North 3.5 mph - N/A   Clear
1:55 PM 71.6 °F 32.0 °F 23% 30.23 in - NE 4.6 mph - N/A   Clear
2:15 PM 71.6 °F 32.0 °F 23% 30.23 in - Calm Calm - N/A   Clear
2:35 PM 71.6 °F 32.0 °F 23% 30.22 in - NNE 3.5 mph - N/A   Clear
2:55 PM 71.6 °F 32.0 °F 23% 30.22 in - East 3.5 mph - N/A   Clear
3:15 PM 71.6 °F 32.0 °F 23% 30.22 in - NE 4.6 mph - N/A   Clear
3:35 PM 71.6 °F 30.2 °F 22% 30.21 in - Calm Calm - N/A   Clear
3:55 PM 71.6 °F 32.0 °F 23% 30.21 in - NE 5.8 mph - N/A   Clear
4:15 PM 71.6 °F 32.0 °F 23% 30.21 in - Calm Calm - N/A   Clear
4:35 PM 69.8 °F 30.2 °F 23% 30.21 in - Calm Calm - N/A   Clear
4:55 PM 69.8 °F 32.0 °F 25% 30.21 in - East 3.5 mph - N/A   Clear
5:15 PM 64.4 °F 35.6 °F 34% 30.21 in - Calm Calm - N/A   Clear
5:35 PM 59.0 °F 39.2 °F 48% 30.22 in - Calm Calm - N/A   Clear
5:55 PM 57.2 °F 39.2 °F 51% 30.22 in - Calm Calm - N/A   Clear
6:15 PM 55.4 °F 39.2 °F 54% 30.23 in - Calm Calm - N/A   Clear
6:35 PM 53.6 °F 41.0 °F 62% 30.23 in - Calm Calm - N/A   Clear
6:55 PM 51.8 °F 41.0 °F 67% 30.24 in - Calm Calm - N/A   Clear
7:15 PM 50.0 °F 41.0 °F 71% 30.24 in - Calm Calm - N/A   Clear
7:35 PM 50.0 °F 41.0 °F 71% 30.24 in - Calm Calm - N/A   Clear
7:55 PM 48.2 °F 41.0 °F 76% 30.24 in - Calm Calm - N/A   Clear
8:15 PM 48.2 °F 41.0 °F 76% 30.26 in - Calm Calm - N/A   Clear
8:35 PM 46.4 °F 41.0 °F 81% 30.26 in - Calm Calm - N/A   Clear
8:55 PM 46.4 °F 41.0 °F 81% 30.27 in - Calm Calm - N/A   Clear
9:15 PM 46.4 °F 41.0 °F 81% 30.27 in - Calm Calm - N/A   Clear
9:35 PM 44.6 °F 41.0 °F 87% 30.27 in - Calm Calm - N/A   Clear
9:55 PM 44.6 °F 41.0 °F 87% 30.27 in - Calm Calm - N/A   Clear
10:15 PM 44.6 °F 41.0 °F 87% 30.27 in - Calm Calm - N/A   Unknown
10:35 PM 42.8 °F 41.0 °F 93% 30.28 in - Calm Calm - N/A   Unknown
10:55 PM 42.8 °F 41.0 °F 93% 30.28 in - Calm Calm - N/A   Unknown
11:15 PM 42.8 °F 41.0 °F 93% 30.28 in - Calm Calm - N/A   Unknown
11:35 PM 42.8 °F 41.0 °F 93% 30.27 in - Calm Calm - N/A   Unknown
11:55 PM 41.0 °F 41.0 °F 100% 30.27 in - Calm Calm - N/A   Unknown